Location: Boiro
(42.6475°N, 8.8834°W)
Time: 18:26:34
(UTC+01:00)

Explorer 11/Cluster Stage 4 - Pass Details

Date: 30 November 2021
Orbit: 467 x 1255 km, 28.8° (Epoch: 23 January)

Event Time Altitude Azimuth Distance (km) Brightness Sun altitude
Exits shadow 05:12:04 23° 160° (SSE) 2,338 9.0 -38.5°
Drops below altitude 10° 05:17:49 10° 116° (ESE) 3,218 10.3 -37.5°
Sets 05:21:28 0° 103° (ESE) 4,192 11.2 -36.8°
